When you browse on this site, cookies collect data to enhance your experience and personalize the content and advertising you see.
Visit our Privacy Policy to learn more. By continuing to use the site, you agree to this use of cookies and data.
  • In Hungary
  • List of Countries
  • For 7 days
  • Water Temperature
  • Weather Map
  • News
  • Weather Widgets
  • user-avatar
    Login

    Hourly Weather Myasoedovo

    Today, 18 August, Sunday

    Time Temperature Precipitation Wind Pressure Humidity
    00:00 +14°C° 1.2 mm 3 mps 735 mmHg 97%
    01:00 +14°C° 1.2 mm 3 mps 734 mmHg 97%
    02:00 +14°C° 0 mm 3 mps 734 mmHg 98%
    03:00 +13°C° 2.9 mm 3 mps 734 mmHg 98%
    04:00 +13°C° 2.9 mm 3 mps 733 mmHg 98%
    05:00 +13°C° 2.9 mm 3 mps 733 mmHg 98%
    06:00 +13°C° 1.9 mm 3 mps 733 mmHg 98%
    07:00 +13°C° 1.9 mm 3 mps 733 mmHg 98%
    08:00 +13°C° 1.9 mm 3 mps 733 mmHg 98%
    09:00 +15°C° 0.5 mm 2 mps 733 mmHg 98%
    10:00 +15°C° 0.5 mm 2 mps 733 mmHg 97%
    11:00 +15°C° 0.5 mm 2 mps 734 mmHg 97%
    12:00 +16°C° 0.1 mm 2 mps 734 mmHg 96%
    13:00 +16°C° 0.1 mm 3 mps 734 mmHg 95%
    14:00 +16°C° 0.1 mm 3 mps 734 mmHg 94%
    15:00 +16°C° 0 mm 3 mps 735 mmHg 95%
    16:00 +16°C° 0 mm 3 mps 735 mmHg 95%
    17:00 +16°C° 0 mm 3 mps 735 mmHg 95%
    18:00 +14°C° 0.1 mm 3 mps 736 mmHg 96%
    19:00 +14°C° 0.1 mm 3 mps 736 mmHg 97%
    20:00 +14°C° 0.1 mm 3 mps 736 mmHg 98%
    21:00 +14°C° 0.1 mm 3 mps 736 mmHg 98%
    22:00 +14°C° 0.1 mm 3 mps 736 mmHg 98%
    23:00 +15°C° 0.1 mm 2 mps 736 mmHg 98%

    Tomorrow, 19 August, Monday

    Time Temperature Precipitation Wind Pressure Humidity
    00:00 +14°C° 0 mm 3 mps 737 mmHg 98%
    01:00 +14°C° 0 mm 3 mps 737 mmHg 98%
    02:00 +14°C° 0 mm 3 mps 737 mmHg 98%
    03:00 +14°C° 0 mm 3 mps 738 mmHg 97%
    04:00 +14°C° 0 mm 3 mps 738 mmHg 97%
    05:00 +14°C° 0 mm 3 mps 738 mmHg 97%
    06:00 +14°C° 0 mm 3 mps 739 mmHg 95%
    07:00 +16°C° 0 mm 3 mps 739 mmHg 94%
    08:00 +17°C° 0 mm 3 mps 739 mmHg 92%
    09:00 +18°C° 0 mm 3 mps 739 mmHg 84%
    10:00 +20°C° 0 mm 3 mps 740 mmHg 77%
    11:00 +21°C° 0 mm 3 mps 740 mmHg 69%
    12:00 +22°C° 0 mm 3 mps 740 mmHg 66%
    13:00 +24°C° 0 mm 3 mps 740 mmHg 63%
    14:00 +24°C° 0 mm 3 mps 741 mmHg 61%
    15:00 +24°C° 0 mm 3 mps 741 mmHg 65%
    16:00 +24°C° 0 mm 2 mps 741 mmHg 70%
    17:00 +24°C° 0 mm 2 mps 741 mmHg 75%
    18:00 +21°C° 0 mm 2 mps 741 mmHg 80%
    19:00 +20°C° 0 mm 2 mps 741 mmHg 86%
    20:00 +18°C° 0 mm 2 mps 741 mmHg 92%
    21:00 +18°C° 0 mm 2 mps 741 mmHg 93%
    22:00 +17°C° 0 mm 2 mps 741 mmHg 94%
    23:00 +17°C° 0 mm 2 mps 741 mmHg 94%

    Day after tomorrow, 20 August, Tuesday

    Time Temperature Precipitation Wind Pressure Humidity
    00:00 +17°C° 0 mm 3 mps 742 mmHg 94%
    01:00 +17°C° 0 mm 3 mps 742 mmHg 94%
    02:00 +16°C° 0 mm 3 mps 742 mmHg 93%
    03:00 +16°C° 0 mm 3 mps 742 mmHg 94%
    04:00 +16°C° 0 mm 2 mps 742 mmHg 95%
    05:00 +16°C° 0 mm 2 mps 742 mmHg 96%
    06:00 +17°C° 0 mm 2 mps 743 mmHg 92%
    07:00 +19°C° 0 mm 2 mps 743 mmHg 88%
    08:00 +21°C° 0 mm 2 mps 743 mmHg 84%
    09:00 +23°C° 0.2 mm 2 mps 743 mmHg 81%
    10:00 +24°C° 0.2 mm 3 mps 743 mmHg 79%
    11:00 +26°C° 0.2 mm 3 mps 743 mmHg 76%
    12:00 +26°C° 0.3 mm 3 mps 744 mmHg 74%
    13:00 +26°C° 0.3 mm 2 mps 744 mmHg 72%
    14:00 +27°C° 0.3 mm 2 mps 744 mmHg 71%
    15:00 +26°C° 0.2 mm 2 mps 744 mmHg 74%
    16:00 +26°C° 0.2 mm 1 mps 744 mmHg 78%
    17:00 +25°C° 0.2 mm 1 mps 744 mmHg 81%
    18:00 +24°C° 0.5 mm 1 mps 744 mmHg 85%
    19:00 +22°C° 0.5 mm 1 mps 744 mmHg 89%
    20:00 +21°C° 0.5 mm 1 mps 744 mmHg 93%
    21:00 +20°C° 0.3 mm 1 mps 744 mmHg 94%
    22:00 +20°C° 0.3 mm 1 mps 745 mmHg 95%
    23:00 +18°C° 0.3 mm 0 mps 745 mmHg 95%

    21 August, Wednesday

    Time Temperature Precipitation Wind Pressure Humidity
    00:00 +19°C° 0.4 mm 1 mps 745 mmHg 96%
    01:00 +19°C° 0.4 mm 1 mps 745 mmHg 96%
    02:00 +19°C° 0.4 mm 1 mps 745 mmHg 97%
    03:00 +19°C° 0.2 mm 1 mps 745 mmHg 97%
    04:00 +19°C° 0.2 mm 1 mps 745 mmHg 97%
    05:00 +19°C° 0.2 mm 1 mps 745 mmHg 98%
    06:00 +20°C° 0 mm 1 mps 745 mmHg 96%
    07:00 +21°C° 0 mm 1 mps 745 mmHg 94%
    08:00 +22°C° 0 mm 1 mps 746 mmHg 92%
    09:00 +22°C° 0 mm 1 mps 745 mmHg 90%
    10:00 +23°C° 0 mm 1 mps 745 mmHg 87%
    11:00 +24°C° 0 mm 1 mps 745 mmHg 85%
    12:00 +25°C° 0.1 mm 1 mps 745 mmHg 82%
    13:00 +25°C° 0.1 mm 1 mps 745 mmHg 79%
    14:00 +26°C° 0.1 mm 1 mps 745 mmHg 75%
    15:00 +26°C° 1.2 mm 1 mps 744 mmHg 80%
    16:00 +25°C° 1.2 mm 1 mps 744 mmHg 84%
    17:00 +25°C° 1.2 mm 1 mps 744 mmHg 88%
    18:00 +24°C° 0.6 mm 1 mps 743 mmHg 89%
    19:00 +22°C° 0.6 mm 1 mps 743 mmHg 90%
    20:00 +20°C° 0.6 mm 2 mps 743 mmHg 92%
    21:00 +20°C° 0.4 mm 2 mps 742 mmHg 93%
    22:00 +20°C° 0.4 mm 2 mps 742 mmHg 94%
    23:00 +19°C° 0.4 mm 3 mps 742 mmHg 94%

    22 August, Thursday

    Time Temperature Precipitation Wind Pressure Humidity
    00:00 +19°C° 0 mm 3 mps 741 mmHg 94%
    01:00 +19°C° 0 mm 3 mps 741 mmHg 94%
    02:00 +19°C° 0 mm 3 mps 741 mmHg 94%
    03:00 +19°C° 0.1 mm 3 mps 741 mmHg 95%
    04:00 +18°C° 0.1 mm 3 mps 740 mmHg 95%
    05:00 +18°C° 0.1 mm 3 mps 740 mmHg 95%
    06:00 +19°C° 0.4 mm 3 mps 740 mmHg 94%
    07:00 +19°C° 0.4 mm 3 mps 741 mmHg 93%
    08:00 +20°C° 0.4 mm 3 mps 741 mmHg 92%
    09:00 +19°C° 0.2 mm 3 mps 741 mmHg 91%
    10:00 +19°C° 0.2 mm 4 mps 742 mmHg 90%
    11:00 +18°C° 0.2 mm 4 mps 742 mmHg 89%
    12:00 +18°C° 0.1 mm 4 mps 742 mmHg 89%
    13:00 +18°C° 0.1 mm 4 mps 742 mmHg 88%
    14:00 +17°C° 0.1 mm 4 mps 742 mmHg 88%
    15:00 +18°C° 0 mm 3 mps 742 mmHg 86%
    16:00 +18°C° 0 mm 3 mps 743 mmHg 85%
    17:00 +19°C° 0 mm 2 mps 743 mmHg 83%
    18:00 +18°C° 0 mm 2 mps 743 mmHg 86%
    19:00 +17°C° 0 mm 2 mps 743 mmHg 89%
    20:00 +15°C° 0 mm 2 mps 743 mmHg 91%
    21:00 +15°C° 0 mm 2 mps 744 mmHg 92%
    22:00 +14°C° 0 mm 2 mps 744 mmHg 93%
    23:00 +12°C° 0 mm 3 mps 744 mmHg 94%

    23 August, Friday

    Time Temperature Precipitation Wind Pressure Humidity
    00:00 +13°C° 0 mm 2 mps 745 mmHg 94%
    01:00 +12°C° 0 mm 2 mps 745 mmHg 94%
    02:00 +12°C° 0 mm 2 mps 745 mmHg 94%
    03:00 +10°C° 0 mm 2 mps 745 mmHg 94%
    04:00 +10°C° 0 mm 2 mps 745 mmHg 94%
    05:00 +10°C° 0 mm 2 mps 745 mmHg 94%
    06:00 +12°C° 0 mm 2 mps 745 mmHg 89%
    07:00 +14°C° 0 mm 2 mps 746 mmHg 83%
    08:00 +16°C° 0 mm 2 mps 746 mmHg 77%
    09:00 +17°C° 0 mm 2 mps 746 mmHg 71%
    10:00 +19°C° 0 mm 2 mps 746 mmHg 65%
    11:00 +20°C° 0 mm 2 mps 746 mmHg 60%
    12:00 +20°C° 0 mm 2 mps 746 mmHg 58%
    13:00 +21°C° 0 mm 2 mps 746 mmHg 57%
    14:00 +21°C° 0 mm 2 mps 745 mmHg 56%
    15:00 +21°C° 0 mm 2 mps 745 mmHg 60%
    16:00 +21°C° 0 mm 1 mps 745 mmHg 65%
    17:00 +21°C° 0 mm 1 mps 745 mmHg 69%
    18:00 +19°C° 0 mm 1 mps 745 mmHg 73%
    19:00 +16°C° 0 mm 1 mps 745 mmHg 78%
    20:00 +13°C° 0 mm 0 mps 745 mmHg 82%
    21:00 +13°C° 0 mm 0 mps 745 mmHg 81%
    22:00 +13°C° 0 mm 0 mps 745 mmHg 81%
    23:00 +13°C° 0 mm 0 mps 745 mmHg 81%
    Show more